Location: Camp at the Woods
(43.2055°N, 93.0905°W)
Time: 08:37:22
(UTC+00:00)

DMSP B5D2-2 - Pass Details

Date: 05 December 2023
Orbit: 788 x 803 km, 98.3° (Epoch: 29 February)

Event Time Altitude Azimuth Distance (km) Brightness Sun altitude
Rises 23:16:57 0° 14° (NNE) 3,295 6.9 -7.3°
Reaches altitude 10° 23:19:17 10° 16° (NNE) 2,363 6.2 -7.7°
Maximum altitude 23:24:31 80° 103° (ESE) 810 4.1 -8.5°
Drops below altitude 10° 23:29:44 10° 191° (S) 2,356 7.0 -9.4°
Sets 23:32:03 0° 192° (SSW) 3,284 7.8 -9.8°
